Location: Les Jeannots
(43.2262°N, 5.5774°E)
Time: 19:13:17
(UTC+00:00)

Cosmos 2112 Rocket - Pass Details

Date: 05 July 2020
Orbit: 756 x 787 km, 74.1° (Epoch: 12 August)

Event Time Altitude Azimuth Distance (km) Brightness Sun altitude
Exits shadow 22:48:21 36° 226° (SW) 1,234 4.8 -22.9°
Maximum altitude 22:50:28 63° 293° (WNW) 877 4.3 -23.0°
Drops below altitude 10° 22:55:47 10° 14° (NNE) 2,357 7.4 -23.2°
Sets 22:58:13 0° 18° (NNE) 3,289 8.3 -23.3°
